Location: Unspecified
(0.0000°N, 0.0000°E)
Time: 10:12:19
(UTC+00:00)

N. Korean satellite - Pass Details

Date: 06 June 2020
Orbit: 454 x 505 km, 97.2° (Epoch: 06 July)

Event Time Altitude Azimuth Distance (km) Brightness Sun altitude
Rises 05:08:53 0° 15° (NNE) 2,558 10.8 -11.5°
Reaches altitude 10° 05:10:58 10° 17° (NNE) 1,672 9.9 -11.0°
Maximum altitude 05:14:33 68° 101° (E) 523 6.9 -10.2°
Drops below altitude 10° 05:18:05 10° 184° (S) 1,651 9.0 -9.4°
Sets 05:20:08 0° 187° (S) 2,523 9.9 -8.9°
